Location: Tamazert
(32.6352°N, 5.2072°W)
Time: 15:06:55
(UTC+00:00)

Vanguard 3 - Pass Details

Date: 09 October 2022
Orbit: 509 x 3255 km, 33.3° (Epoch: 08 December)

Event Time Altitude Azimuth Distance (km) Brightness Sun altitude
Rises 04:07:10 0° 204° (SSW) 3,594 - -28.7°
Exits shadow 04:12:21 10° 167° (SSE) 2,161 9.3 -27.6°
Reaches altitude 10° 04:13:09 10° 157° (SSE) 2,060 9.3 -27.5°
Maximum altitude 04:13:17 10° 155° (SSE) 2,049 9.4 -27.5°
Drops below altitude 10° 04:13:25 10° 153° (SSE) 2,039 9.4 -27.4°
Sets 04:18:04 0° 101° (ESE) 2,655 10.9 -26.5°
